Zurück zum Katalog

STARLINK-34877

AktivKommunikationVLEO
NORAD 65630·PAYLOAD·🇺🇸 United States

Gestartet Sep 18, 2025 von Cape Canaveral Space Force Station

Loading…

Nächste Überflüge (nächste 24 Stunden)

TLE

AktuellSource: CelesTrak SupGP

Epoche: Sep 14, 2026, 15:48 UTC

1 65630C 25210J   26257.65881944  .00093073  00000+0  27464-2 0  2570
2 65630  53.1576 145.1924 0001170  91.6242 194.9766 15.34384437    13

Verfolge STARLINK-34877 in Echtzeit mit AllMySat

Download on the App Store